Location: Scenic Heights
(38.0166°N, 120.2566°W)
Time: 14:05:45
(UTC+00:00)

IRS-1D - Pass Details

Date: 03 August 2024
Orbit: 738 x 813 km, 98.8° (Epoch: 08 September)

Event Time Altitude Azimuth Distance (km) Brightness Sun altitude
Rises 12:27:55 0° 5° (N) 3,194 7.2 -7.6°
Reaches altitude 10° 12:30:17 10° 358° (N) 2,273 6.3 -7.2°
Maximum altitude 12:34:57 42° 289° (WNW) 1,080 4.0 -6.4°
Drops below altitude 10° 12:39:41 10° 220° (SW) 2,299 5.4 -5.6°
Enters shadow 12:41:32 - 215° (SW) 3,009 6.0 -5.3°
